Date String (YYYY-MM-DD hh:mm:ss) UTC,Instrument flags,Ambient pressure (hPa),Sample flow (lpm),Bypass flow (lpm),Sample temperature (°C),Ambient temperature (°C),ASC tube jacket temperature (°C),LED temperature (°C),Box temperature (°C),Sample RH (%),Span deviation,Mass concentration (μg/m³),Mass concentration (μg/m³),Mass concentration (μg/m³)
DateTimeUTC,F1_M11,P_M11,Q1_M11,Q2_M11,T1_M11,T2_M11,T3_M11,T4_M11,T5_M11,U1_M11,ZSPAN_M11,X0_M11,X2_M11,X1_M11
2023-05-10 18:00:00,,0830.0,5.01,0.00,29.0,27.4,00.0,37.4,30.7,27.5,-001.2,0009.09,0005.23,0004.71
2023-05-10 18:01:00,,0830.0,4.99,0.00,29.0,27.3,00.0,37.4,30.7,27.6,-000.7,0009.19,0005.21,0004.70
2023-05-10 18:02:00,,0830.0,4.99,0.00,29.0,27.3,00.0,37.4,30.7,27.6,-000.5,0009.16,0005.19,0004.70
2023-05-10 18:03:00,,0830.0,5.00,0.00,29.0,27.3,00.0,37.4,30.7,27.5,-000.6,0009.06,0005.15,0004.69
2023-05-10 18:04:00,,0830.0,5.00,0.00,29.0,27.4,00.0,37.4,30.7,27.6,-000.2,0009.68,0005.14,0004.70
2023-05-10 18:05:00,,0830.0,5.00,0.00,29.0,27.3,00.0,37.4,30.7,27.7,-000.3,0009.54,0005.09,0004.69
2023-05-10 18:06:00,,0830.0,5.01,0.00,29.0,27.4,00.0,37.4,30.7,27.8,-000.7,0009.45,0005.07,0004.69
2023-05-10 18:07:00,,0830.0,5.01,0.00,29.0,27.4,00.0,37.4,30.7,27.9,-000.6,0009.41,0005.08,0004.69
2023-05-10 18:08:00,,0830.0,5.00,0.00,29.0,27.4,00.0,37.4,30.7,27.9,-000.4,0009.29,0005.05,0004.70
2023-05-10 18:09:00,,0829.9,4.99,0.00,29.0,27.4,00.0,37.4,30.7,27.8,-000.7,0009.85,0005.11,0004.73
2023-05-10 18:10:00,,0829.9,4.99,0.00,29.0,27.4,00.0,37.4,30.7,27.5,-001.1,0009.98,0005.15,0004.74
2023-05-10 18:11:00,,0829.9,5.00,0.00,29.0,27.4,00.0,37.4,30.7,27.5,-001.2,0009.49,0005.17,0004.76
2023-05-10 18:12:00,,0829.9,5.00,0.00,29.0,27.4,00.0,37.4,30.7,27.4,-001.0,0009.31,0005.21,0004.77
2023-05-10 18:13:00,,0830.0,5.01,0.00,29.0,27.4,00.0,37.4,30.7,27.2,-001.2,0009.42,0005.26,0004.78
2023-05-10 18:14:00,,0829.9,5.01,0.00,29.0,27.4,00.0,37.4,30.7,27.2,-001.4,0009.44,0005.29,0004.80
2023-05-10 18:15:00,,0829.9,5.00,0.00,29.0,27.4,00.0,37.4,30.7,27.0,-001.7,0008.92,0005.30,0004.80
2023-05-10 18:16:00,,0829.9,5.00,0.00,29.0,27.4,00.0,37.4,30.7,27.3,-001.7,0009.01,0005.34,0004.80
2023-05-10 18:17:00,,0829.8,4.99,0.00,29.0,27.4,00.0,37.4,30.7,27.8,-001.2,0009.69,0005.39,0004.81
2023-05-10 18:18:00,,0829.8,4.99,0.00,29.0,27.5,00.0,37.4,30.7,27.5,-002.1,0009.80,0005.38,0004.82
2023-05-10 18:19:00,,0829.8,5.02,0.00,29.0,27.5,00.0,37.4,30.7,27.2,-002.5,0009.89,0005.40,0004.82
2023-05-10 18:20:00,,0829.8,5.00,0.00,29.1,27.5,00.0,37.4,30.7,27.2,-002.2,0009.56,0005.43,0004.84
2023-05-10 18:21:00,,0829.8,5.00,0.00,29.1,27.5,00.0,37.4,30.7,27.2,-001.6,0009.25,0005.41,0004.84
2023-05-10 18:22:00,,0829.8,5.01,0.00,29.1,27.5,00.0,37.5,30.7,27.0,-001.1,0009.26,0005.42,0004.86
2023-05-10 18:23:00,,0829.8,4.99,0.00,29.1,27.5,00.0,37.5,30.7,27.1,-001.4,0009.53,0005.47,0004.89
2023-05-10 18:24:00,,0829.7,5.01,0.00,29.1,27.5,00.0,37.5,30.7,27.4,-001.8,0009.48,0005.47,0004.91
2023-05-10 18:25:00,,0829.7,5.01,0.00,29.1,27.5,00.0,37.5,30.7,27.3,-001.9,0009.46,0005.46,0004.93
2023-05-10 18:26:00,,0829.7,5.01,0.00,29.1,27.5,00.0,37.5,30.8,27.4,-002.0,0009.46,0005.48,0004.96
2023-05-10 18:27:00,,0829.7,5.00,0.00,29.1,27.5,00.0,37.5,30.8,27.2,-002.4,0009.81,0005.55,0005.00
2023-05-10 18:28:00,,0829.7,4.99,0.00,29.1,27.5,00.0,37.5,30.8,27.1,-002.6,0009.58,0005.55,0005.03
2023-05-10 18:29:00,,0829.7,4.99,0.00,29.1,27.5,00.0,37.5,30.8,27.2,-001.9,0009.64,0005.61,0005.07
2023-05-10 18:30:00,,0829.7,5.01,0.00,29.1,27.5,00.0,37.5,30.8,27.1,-001.2,0009.70,0005.67,0005.11
2023-05-10 18:31:00,,0829.6,5.01,0.00,29.1,27.5,00.0,37.5,30.8,27.6,-001.2,0009.60,0005.65,0005.12
2023-05-10 18:32:00,,0829.7,5.00,0.00,29.1,27.5,00.0,37.5,30.8,27.8,-001.3,0009.67,0005.69,0005.16
2023-05-10 18:33:00,,0829.7,5.01,0.00,29.1,27.5,00.0,37.5,30.8,27.6,-001.7,0009.75,0005.75,0005.20
2023-05-10 18:34:00,,0829.6,4.98,0.00,29.1,27.5,00.0,37.5,30.8,27.5,-002.0,0009.49,0005.72,0005.22
2023-05-10 18:35:00,,0829.6,5.00,0.00,29.1,27.5,00.0,37.5,30.8,27.0,-001.9,0009.46,0005.74,0005.24
2023-05-10 18:36:00,,0829.6,5.02,0.00,29.1,27.6,00.0,37.5,30.8,26.9,-001.7,0010.16,0005.81,0005.28
2023-05-10 18:37:00,,0829.5,5.00,0.00,29.1,27.6,00.0,37.5,30.8,26.8,-001.2,0010.32,0005.82,0005.30
2023-05-10 18:38:00,,0829.5,4.99,0.00,29.1,27.5,00.0,37.5,30.8,26.9,-000.5,0010.05,0005.81,0005.32
2023-05-10 18:39:00,,0829.5,5.00,0.00,29.1,27.5,00.0,37.5,30.8,27.1,-000.3,0009.75,0005.80,0005.34
2023-05-10 18:40:00,,0829.4,5.02,0.00,29.1,27.6,00.0,37.5,30.8,27.2,-000.1,0009.49,0005.81,0005.35
2023-05-10 18:41:00,,0829.4,4.97,0.00,29.1,27.6,00.0,37.5,30.8,27.3,-000.1,0009.42,0005.79,0005.37
2023-05-10 18:42:00,,0829.3,5.01,0.00,29.1,27.6,00.0,37.5,30.8,27.0,0000.3,0009.44,0005.82,0005.40
2023-05-10 18:43:00,,0829.3,5.00,0.00,29.1,27.6,00.0,37.5,30.8,26.5,0000.3,0009.64,0005.87,0005.44
2023-05-10 18:44:00,,0829.4,5.00,0.00,29.1,27.6,00.0,37.5,30.8,26.3,0000.6,0010.18,0005.91,0005.45
2023-05-10 18:45:00,,0829.4,4.99,0.00,29.1,27.6,00.0,37.5,30.8,26.8,0001.1,0010.31,0005.97,0005.47
2023-05-10 18:46:00,,0829.4,5.01,0.00,29.1,27.5,00.0,37.5,30.8,26.6,0001.2,0010.92,0006.04,0005.51
2023-05-10 18:47:00,,0829.4,5.01,0.00,29.1,27.6,00.0,37.5,30.8,27.2,0001.7,0011.26,0006.10,0005.54
2023-05-10 18:48:00,,0829.4,4.99,0.00,29.1,27.6,00.0,37.5,30.8,27.2,0001.7,0011.28,0006.18,0005.58
2023-05-10 18:49:00,,0829.3,4.99,0.00,29.1,27.6,00.0,37.5,30.8,26.9,0001.2,0011.60,0006.21,0005.63
2023-05-10 18:50:00,,0829.3,4.99,0.00,29.1,27.6,00.0,37.5,30.8,27.1,0001.0,0011.78,0006.26,0005.66
2023-05-10 18:51:00,,0829.2,5.00,0.00,29.2,27.6,00.0,37.5,30.8,26.2,0000.7,0011.82,0006.31,0005.70
2023-05-10 18:52:00,,0829.2,5.02,0.00,29.2,27.6,00.0,37.5,30.9,26.3,0000.7,0011.93,0006.39,0005.74
2023-05-10 18:53:00,,0829.2,5.01,0.00,29.2,27.7,00.0,37.6,30.8,26.9,0000.4,0012.07,0006.45,0005.76
2023-05-10 18:54:00,,0829.2,4.99,0.00,29.2,27.7,00.0,37.6,30.9,26.8,0000.5,0011.98,0006.45,0005.76
2023-05-10 18:55:00,,0829.2,5.00,0.00,29.2,27.7,00.0,37.6,30.9,26.5,0000.6,0011.45,0006.44,0005.79
2023-05-10 18:56:00,,0829.2,4.99,0.00,29.2,27.7,00.0,37.6,30.9,26.7,0000.7,0011.48,0006.49,0005.85
2023-05-10 18:57:00,,0829.1,4.99,0.00,29.2,27.7,00.0,37.6,30.9,26.4,0000.8,0011.06,0006.47,0005.86
2023-05-10 18:58:00,,0829.1,5.01,0.00,29.2,27.7,00.0,37.6,30.9,26.2,0000.7,0010.03,0006.42,0005.87
2023-05-10 18:59:00,,0829.1,5.01,0.00,29.2,27.7,00.0,37.6,30.9,26.1,0000.7,0010.24,0006.41,0005.89
